(244560) = 2002 VG92

Discovered at Socorro on 2002-11-11 by LINEAR.

Orbit

Orbit type: Main Belt

Note: WebGL enabled browser required.

epoch2024-03-31.0
epoch JD2460400.5
perihelion date2023-07-11.89010
perihelion JD2460137.39010
argument of perihelion (°)100.39424
ascending node (°)319.99879
inclination (°)20.65215
eccentricity0.1852382
perihelion distance (AU)2.1012001
Tisserand w.r.t. Jupiter3.3
ΔV w.r.t. Earth (km/sec)11.1
semimajor axis (AU)2.5789133
mean anomaly (°)62.61608
mean daily motion (°/day)0.23798450
aphelion distance (AU)3.057
period (years)4.14
P-vector [x]0.45341830
P-vector [y]0.61527690
P-vector [z]0.64486136
Q-vector [x]-0.86198213
Q-vector [y]0.48674017
Q-vector [z]0.14167152
absolute magnitude15.47
phase slope0.15
uncertainty0
referenceMPEC 2024-F28
observations used996
oppositions13
arc length (days)9225
first opposition used1998
last opposition used2024
residual rms (arc-secs)0.61
perturbers coarse indicatorM-v
perturbers precise indicator003Ek
first observation date used1998-12-12.0
last observation date used2024-03-15.0
computer nameMPCLINUX
JD of orbit computation2456937.381898
perihelion JD uncertainty (days)2.6072E-04
argument of perihelion uncertainty (°)6.2722E-05
ascending node uncertainty (°)2.2408E-05
inclination uncertainty (°)8.7437E-06
eccentricity uncertainty 1.3878E-07
perihelion distance uncertainty (AU)3.8615E-07
Minimum Orbit Intersection Distances (in AU)
for orbit epoch: 2460400.5, reference: E2024-GF4
Mercury1.81061
Venus1.44717
Earth1.22053
Mars0.6618
Jupiter2.40114
Saturn6.78106
Uranus15.8017
Neptune27.4947

Observations

1022 total observations over interval: 1998 12 12.38390 – 2024 03 15.345987
These data are available for download (format description).

Date (UT) J2000 RA J2000 Dec Magn Location Ref
1998 12 12.38390 07 45 07.48 +46 43 47.8 18.4   704 – Lincoln Laboratory ETS, New Mexico MPS 70043
1998 12 12.39803 07 45 06.61 +46 43 45.9 18.4   704 – Lincoln Laboratory ETS, New Mexico MPS 70043
1998 12 12.41243 07 45 05.55 +46 43 46.2 19.6   704 – Lincoln Laboratory ETS, New Mexico MPS 70043
1998 12 12.42644 07 45 04.86 +46 43 46.3 19.6   704 – Lincoln Laboratory ETS, New Mexico MPS 70043
1998 12 12.44038 07 45 03.35 +46 43 44.5 20.2   704 – Lincoln Laboratory ETS, New Mexico MPS 70043
1999 01 08.39767 07 06 35.69 +44 38 23.8 17.9 R 699 – Lowell Observatory-LONEOS MPS 70043
1999 01 08.41302 07 06 34.32 +44 38 15.1   699 – Lowell Observatory-LONEOS MPS 70043
1999 01 08.43785 07 06 31.91 +44 38 01.0   699 – Lowell Observatory-LONEOS MPS 70043
1999 01 14.20358 06 58 01.29 +43 38 11.3 19.0   704 – Lincoln Laboratory ETS, New Mexico MPS 70043
1999 01 14.22729 06 57 59.17 +43 37 56.5 19.0   704 – Lincoln Laboratory ETS, New Mexico MPS 70043
1999 01 14.25027 06 57 57.29 +43 37 40.5 19.0   704 – Lincoln Laboratory ETS, New Mexico MPS 70043
1999 01 14.27335 06 57 55.20 +43 37 25.6 19.4   704 – Lincoln Laboratory ETS, New Mexico MPS 70043
1999 01 14.29620 06 57 53.16 +43 37 09.0 19.1   704 – Lincoln Laboratory ETS, New Mexico MPS 70043
2002 11 11.32074 05 17 02.06 +56 46 15.9 18.3   704 – Lincoln Laboratory ETS, New Mexico MPS 66502
2002 11 11.33731 05 17 01.24 +56 46 20.6 18.8   704 – Lincoln Laboratory ETS, New Mexico MPS 66502
2002 11 11.35398 05 17 00.31 +56 46 25.0 18.8   704 – Lincoln Laboratory ETS, New Mexico MPS 66502
2002 11 11.38752 05 16 58.60 +56 46 35.4 18.7   704 – Lincoln Laboratory ETS, New Mexico MPS 66502
2002 11 13.33074 05 15 17.70 +56 55 10.8 18.7   704 – Lincoln Laboratory ETS, New Mexico MPS 66502
2002 11 13.34811 05 15 16.66 +56 55 15.3 18.6   704 – Lincoln Laboratory ETS, New Mexico MPS 66502
2002 11 13.36574 05 15 15.72 +56 55 19.8 18.4   704 – Lincoln Laboratory ETS, New Mexico MPS 66502
2002 11 13.38366 05 15 14.51 +56 55 24.0 18.6   704 – Lincoln Laboratory ETS, New Mexico MPS 66502
2002 11 17.34869 05 11 11.49 +57 08 28.9 19.3   704 – Lincoln Laboratory ETS, New Mexico MPS 70043
2002 11 17.36580 05 11 10.29 +57 08 30.9 18.9   704 – Lincoln Laboratory ETS, New Mexico MPS 70043
2002 11 17.38295 05 11 08.99 +57 08 34.4 19.2   704 – Lincoln Laboratory ETS, New Mexico MPS 70043
2002 11 17.40027 05 11 07.77 +57 08 35.4 19.1   704 – Lincoln Laboratory ETS, New Mexico MPS 70043
2002 12 12.29310 04 35 48.23 +55 41 05.7 19.0   704 – Lincoln Laboratory ETS, New Mexico MPS 68280
2002 12 12.30865 04 35 46.70 +55 40 56.7 19.0   704 – Lincoln Laboratory ETS, New Mexico MPS 68280
2002 12 12.32432 04 35 45.36 +55 40 47.1 19.0   704 – Lincoln Laboratory ETS, New Mexico MPS 68280
2002 12 12.36279 04 35 41.96 +55 40 24.4 18.8   704 – Lincoln Laboratory ETS, New Mexico MPS 68280
2002 12 13.20940 04 34 32.49 +55 32 01.0 18.0   704 – Lincoln Laboratory ETS, New Mexico MPS 68280
2002 12 13.22446 04 34 31.07 +55 31 52.1 19.4   704 – Lincoln Laboratory ETS, New Mexico MPS 68281
2002 12 13.23951 04 34 29.89 +55 31 43.5 18.4   704 – Lincoln Laboratory ETS, New Mexico MPS 68281
2002 12 13.25455 04 34 28.61 +55 31 34.1 18.4   704 – Lincoln Laboratory ETS, New Mexico MPS 68281
2002 12 13.26959 04 34 27.28 +55 31 24.9 18.6   704 – Lincoln Laboratory ETS, New Mexico MPS 68281
2002 12 14.21351 04 33 11.11 +55 21 39.1 18.7   704 – Lincoln Laboratory ETS, New Mexico MPS 68281
2002 12 14.22945 04 33 09.74 +55 21 29.2 18.5   704 – Lincoln Laboratory ETS, New Mexico MPS 68281
2002 12 14.24501 04 33 08.40 +55 21 19.8 18.7   704 – Lincoln Laboratory ETS, New Mexico MPS 68281
2002 12 14.26063 04 33 07.07 +55 21 09.9 18.8   704 – Lincoln Laboratory ETS, New Mexico MPS 68281
2002 12 14.27651 04 33 05.68 +55 21 00.1 18.9   704 – Lincoln Laboratory ETS, New Mexico MPS 68281
2002 12 28.22392 04 18 36.08 +52 18 52.4 18.9   704 – Lincoln Laboratory ETS, New Mexico MPS 70043
2002 12 28.23882 04 18 35.33 +52 18 39.5 18.5   704 – Lincoln Laboratory ETS, New Mexico MPS 70043
2002 12 28.25362 04 18 34.63 +52 18 26.3 18.5   704 – Lincoln Laboratory ETS, New Mexico MPS 70043
2002 12 28.26836 04 18 33.96 +52 18 12.7 18.8   704 – Lincoln Laboratory ETS, New Mexico MPS 70043
2002 12 28.28332 04 18 33.28 +52 18 00.7 18.7   704 – Lincoln Laboratory ETS, New Mexico MPS 70043
2002 12 29.15640 04 17 58.15 +52 04 47.9 18.3   704 – Lincoln Laboratory ETS, New Mexico MPS 70043
2002 12 29.17247 04 17 57.51 +52 04 30.6 19.9   704 – Lincoln Laboratory ETS, New Mexico MPS 70043
2002 12 29.18771 04 17 56.79 +52 04 18.7 18.6   704 – Lincoln Laboratory ETS, New Mexico MPS 70043
2002 12 29.20300 04 17 56.14 +52 04 04.5 18.5   704 – Lincoln Laboratory ETS, New Mexico MPS 70043
2002 12 29.21836 04 17 55.49 +52 03 50.6 18.6   704 – Lincoln Laboratory ETS, New Mexico MPS 70043
2003 01 11.15388 04 13 56.10 +48 37 51.8 18.4   704 – Lincoln Laboratory ETS, New Mexico MPS 71645
2003 01 11.16968 04 13 56.16 +48 37 36.1 18.8   704 – Lincoln Laboratory ETS, New Mexico MPS 71645
2003 01 11.20043 04 13 56.11 +48 37 07.3 18.8   704 – Lincoln Laboratory ETS, New Mexico MPS 71645
2003 01 11.21554 04 13 56.11 +48 36 52.6 19.4   704 – Lincoln Laboratory ETS, New Mexico MPS 71645
2003 01 14.17819 04 14 14.00 +47 49 00.8 18.4   704 – Lincoln Laboratory ETS, New Mexico MPS 71645
2003 01 14.19357 04 14 14.09 +47 48 45.3 18.9   704 – Lincoln Laboratory ETS, New Mexico MPS 71645
2003 01 14.20883 04 14 14.21 +47 48 31.0 18.5   704 – Lincoln Laboratory ETS, New Mexico MPS 71645
2003 01 14.22444 04 14 14.32 +47 48 15.4 18.9   704 – Lincoln Laboratory ETS, New Mexico MPS 71645
2004 03 16.66321 12 54 07.06 -33 01 12.1 19.7 R E12 – Siding Spring Survey MPS 101194
2004 03 16.67539 12 54 06.22 -33 01 14.4 19.5 R E12 – Siding Spring Survey MPS 101194
2004 03 16.68763 12 54 05.55 -33 01 15.7 19.1 R E12 – Siding Spring Survey MPS 101194
2004 03 16.69984 12 54 04.73 -33 01 17.6 18.5 R E12 – Siding Spring Survey MPS 101194
2004 04 01.51882 12 36 53.42 -33 11 30.6 19.4 R E12 – Siding Spring Survey MPS 103135
2004 04 01.53801 12 36 52.19 -33 11 28.4 18.8 R E12 – Siding Spring Survey MPS 103135
2004 04 01.55206 12 36 51.08 -33 11 28.6 19.5 R E12 – Siding Spring Survey MPS 103135
2004 04 01.56593 12 36 50.08 -33 11 26.2 19.1 R E12 – Siding Spring Survey MPS 103135
2006 09 23.92059 02 39 23.96 +47 04 51.8 18.2 R 113 – Volkssternwarte Drebach, Schoenbrunn MPS 180937
2006 09 23.92366 02 39 23.93 +47 04 54.4 18.3 R 113 – Volkssternwarte Drebach, Schoenbrunn MPS 180937
2006 09 23.92669 02 39 23.90 +47 04 57.2 18.4 R 113 – Volkssternwarte Drebach, Schoenbrunn MPS 180937
2006 11 11.25719 01 51 02.63 +51 34 33.3 18.6   704 – Lincoln Laboratory ETS, New Mexico MPS 186494
2006 11 11.26969 01 51 01.66 +51 34 28.2 18.6   704 – Lincoln Laboratory ETS, New Mexico MPS 186494
2006 11 11.28210 01 51 00.73 +51 34 24.4 18.8   704 – Lincoln Laboratory ETS, New Mexico MPS 186494
2006 11 11.29441 01 50 59.93 +51 34 20.8 18.5   704 – Lincoln Laboratory ETS, New Mexico MPS 186494
2006 12 11.18067 01 34 39.54 +46 34 46.7 19.0   704 – Lincoln Laboratory ETS, New Mexico MPS 192057
2006 12 11.19295 01 34 39.62 +46 34 36.9 19.0   704 – Lincoln Laboratory ETS, New Mexico MPS 192058
2006 12 11.20506 01 34 39.69 +46 34 28.3 18.9   704 – Lincoln Laboratory ETS, New Mexico MPS 192058
2006 12 11.21710 01 34 39.89 +46 34 19.2 19.0   704 – Lincoln Laboratory ETS, New Mexico MPS 192058
2007 01 09.13800 01 57 53.14 +41 24 32.9 19.1   704 – Lincoln Laboratory ETS, New Mexico MPS 195481
2007 01 09.15061 01 57 54.29 +41 24 25.8 19.9   704 – Lincoln Laboratory ETS, New Mexico MPS 195481
2007 01 09.16320 01 57 55.16 +41 24 19.9 19.1   704 – Lincoln Laboratory ETS, New Mexico MPS 195481
2007 01 09.17580 01 57 56.07 +41 24 12.3 19.1   704 – Lincoln Laboratory ETS, New Mexico MPS 195481
2007 01 09.18841 01 57 57.12 +41 24 06.0 19.4   704 – Lincoln Laboratory ETS, New Mexico MPS 195481
2008 04 05.25123 11 40 39.39 -24 31 09.5 19.5 V 703 – Catalina Sky Survey MPS 245698
2008 04 05.25772 11 40 38.96 -24 31 06.3 19.1 V 703 – Catalina Sky Survey MPS 245698
2008 04 05.26425 11 40 38.67 -24 31 06.8 19.4 V 703 – Catalina Sky Survey MPS 245698
